Regional Weather Roundup
Issued by NWS Green Bay, WI

Home | Current Version | Previous Version | Graphics & Text | Print | Product List | Glossary Off
Versions: 1 2 3 4 5 6 7 8 9 10 11 12 13 14 15 16 17 18 19 20 21 22 23 24 25 26 27 28 29 30 31 32 33 34 35 36 37 38 39 40 41 42 43 44 45 46 47 48 49 50

000
ASUS43 KGRB 160311
RWRGRB

NORTH-CENTRAL AND NORTHEAST WISCONSIN REGIONAL WEATHER ROUNDUP
NATIONAL WEATHER SERVICE GREEN BAY WI
900 PM CST MON JAN 15 2018

WIZ005-009-010>012-018-019-160400-
NORTH CENTRAL WISCONSIN

CITY           SKY/WX    TMP DP  RH WIND       PRES   REMARKS
IRONWOOD       CLOUDY     5   1  83 N3        30.42R
MANITOWISH WTR MOCLDY    14  11  91 NE7       30.35R WCI   3
ARBOR VITAE    MOCLDY    17  14  88 NE6       30.33R WCI   8
EAGLE RIVER    FAIR      12   8  83 NE8       30.33R WCI   0
LAND O LAKES   LGT SNOW  14  11  88 CALM      30.36R
RHINELANDER    CLOUDY    15  12  88 NE6       30.33R WCI   6
PHILLIPS       CLOUDY    13  12  93 N6        30.34R WCI   4
ANTIGO         FAIR      10   7  88 NE9       30.31S WCI  -4
TOMAHAWK       LGT SNOW  17  13  86 E6        30.33R WCI   8
MERRILL        CLOUDY    17  14  85 NE5       30.34R
$$

WIZ013-073-160400-
NORTHEAST WISCONSIN

CITY           SKY/WX    TMP DP  RH WIND       PRES   REMARKS
IRON MOUNTAIN  FAIR       6   2  83 CALM      30.34R
MARINETTE      LGT SNOW  18  15  88 NE10      30.35S FOG     WCI   6
OCONTO         CLOUDY    17  13  86 N6        30.34R WCI   9
$$

WIZ017-030-035>037-045-160400-
CENTRAL WISCONSIN

CITY           SKY/WX    TMP DP  RH WIND       PRES   REMARKS
MEDFORD        FLURRIES  16  13  89 N3        30.31S
WAUSAU         CLOUDY    17  12  80 NE6       30.32R WCI   9
MOSINEE        PTCLDY    16  12  86 NE8       30.34R WCI   5
MARSHFIELD     MOCLDY    17  13  84 NE7       30.31R WCI   8
WISC RAPIDS    CLOUDY    18  13  80 NE6       30.34R WCI  10
STEVENS POINT  MOCLDY    14  12  91 N7        30.33R WCI   4
WAUPACA        CLOUDY    20  15  82 N6        30.33R
SHAWANO        MOCLDY    18  14  85 N9        30.34R WCI   6
CLINTONVILLE   MOCLDY    18  14  86 NE8       30.33R WCI   7
WAUTOMA        FLURRIES  17  14  88 N6        30.33R WCI   9
$$

WIZ038-039-048-051-160400-
FOX VALLEY

CITY           SKY/WX    TMP DP  RH WIND       PRES   REMARKS
NWS GREEN BAY  LGT SNOW  18  14  84 N8        30.33R FOG     WCI   8
APPLETON       CLOUDY    18  12  79 N12       30.29R WCI   5
OSHKOSH        CLOUDY    18  15  88 N14       30.30R WCI   4
FOND DU LAC    LGT SNOW  19  14  81 N12       30.29R WCI   7
$$

WIZ022-050-052-160400-
EAST CENTRAL WISCONSIN

CITY           SKY/WX    TMP DP  RH WIND       PRES   REMARKS
EPHRAIM        LGT SNOW  17  15  90 N8        30.31S VSB 1   WCI   7
WASHINGTON ISL LGT SNOW  21  17  84 NE10G21   30.33S
STURGEON BAY   LGT SNOW  18  16  93 N9        30.33R FOG     WCI   6
MANITOWOC      LGT SNOW  19  18  93 N8        30.30S VSB 1   WCI   9
SHEBOYGAN      LGT SNOW  20  18  92 N8        30.28R FOG
$$

LMZ563-521-522-541>543-160400-
LAKESHORE

STATION/POSITION TIME  TEMP    WIND        PRES    VSBY  WAVE
                       AIR SEA DIR/SP/G                  HT/PER
                 (UTC) (F)     (DEG/KT/KT) (MB)    (MI)  (FT/S)
SHEBOYGAN LKSHOR 0300   23      50/ 13/ 15 1026.5R
KEWAUNEE LKSHORE 0242   23      60/  8/ 12 1025.4R
NORTHPORT PIER   0240   23      50/  1/  4 1026.8F
MENOMINEE LKSHOR 0236   18     360/ 13/ 16 1027.1R
$$




USA.gov is the U.S. government's official web portal to all federal, state and local government web resources and services.